Home   Weather   Strasbourg   Past weeks

Flag for France Past Weather in Strasbourg, Alsace, France — Yesterday and Last 2 Weeks

Now
28 °F

Ice fog.


Feels Like: 28 °F
Forecast: 24 / 34 °F
Wind: 2 mph from North

Location: Strasbourg Airport

Current Time: Dec 6, 2016 at 1:53:41 am

Latest Report: Dec 6, 2016 at 1:00 am


Visibility: 0 mi

Pressure: 30.39 "Hg

Humidity: 100%

Dew Point: 28 °F

Location of StrasbourgLocation

Past Weather in Strasbourg — Graph

°F

Strasbourg Temperature Yesterday

Maximum temperature yesterday: 30 °F (at 12:30 pm)
Minimum temperature yesterday: 23 °F (at 2:00 am)
Average temperature yesterday: 28 °F

High & Low Weather Summary for the Past Weeks

 TemperatureHumidityPressure
High54 °F (Nov 22, 1:00 pm)100% (Nov 23, 12:00 am)30.60 "Hg (Nov 23, 12:00 am)
Low19 °F (Nov 30, 8:00 am)52% (Nov 29, 2:00 pm)29.62 "Hg (Nov 21, 9:00 am)
Average38 °F85%30.17 "Hg
* Reported Nov 21 9:00 am — Dec 6 12:30 am, Strasbourg, Weather by CustomWeather, © 2016

Note: Actual official high and low records may vary slightly from our data, if they occured in-between our weather recording intervals... More about our weather records

Advertising

Strasbourg Weather History for the Previous 24 Hours

Scroll right to see more
 ConditionsComfort  
Time TempWeatherWind HumidityBarometerVisibility
12:30 am
Tue, Dec 6
28 °FIce fog.2 mph100%30.39 "Hg1 mi
12:00 am28 °FIce fog.2 mph100%30.39 "Hg1 mi
11:30 pm
Mon, Dec 5
28 °FIce fog.1 mph100%30.39 "Hg1 mi
11:00 pm28 °FIce fog.2 mph100%30.39 "Hg1 mi
10:30 pm28 °FIce fog.2 mph100%30.39 "Hg1 mi
10:00 pm28 °FIce fog.2 mph100%30.39 "Hg1 mi
9:30 pm30 °FIce fog.2 mph93%30.39 "Hg1 mi
9:00 pm30 °FIce fog.2 mph93%30.39 "Hg1 mi
8:30 pm30 °FIce fog.No wind100%30.39 "Hg1 mi
8:00 pm30 °FIce fog.2 mph100%30.39 "Hg1 mi
7:30 pm30 °FIce fog.2 mph100%30.39 "Hg1 mi
7:00 pm30 °FIce fog.No wind100%30.36 "Hg1 mi
6:30 pm30 °FIce fog.No wind100%30.36 "Hg1 mi
6:00 pm30 °FIce fog.No wind100%30.36 "Hg2 mi
5:30 pm30 °FIce fog.No wind100%30.36 "Hg2 mi
5:00 pm30 °FIce fog.1 mph100%30.36 "Hg2 mi
4:30 pm30 °FIce fog.1 mph100%30.36 "Hg1 mi
4:00 pm30 °FIce fog.No wind100%30.36 "Hg1 mi
3:30 pm30 °FIce fog.1 mph100%30.36 "Hg1 mi
3:00 pm30 °FIce fog.No wind93%30.36 "Hg1 mi
2:30 pm30 °FLow clouds.No wind93%30.36 "Hg1 mi
2:00 pm30 °FIce fog.2 mph93%30.36 "Hg1 mi
1:30 pm30 °FLow clouds.1 mph93%30.36 "Hg1 mi
1:00 pm30 °FIce fog.No wind93%30.36 "Hg1 mi
12:30 pm30 °FLow clouds.No wind93%30.36 "Hg1 mi
12:00 pm28 °FIce fog.No wind100%30.36 "Hg1 mi
11:30 am28 °FIce fog.No wind100%30.36 "Hg1 mi
11:00 am28 °FIce fog.No wind100%30.36 "Hg1 mi
10:30 am28 °FIce fog.3 mph100%30.36 "Hg1 mi
10:00 am28 °FIce fog.No wind93%30.36 "Hg1 mi
9:30 am27 °FIce fog.1 mph100%30.36 "Hg1 mi
9:00 am28 °FIce fog.3 mph93%30.36 "Hg1 mi
8:30 am27 °FIce fog.2 mph100%30.36 "Hg1 mi
8:00 am27 °FIce fog.2 mph100%30.36 "Hg1 mi
7:30 am27 °FIce fog.No wind100%30.33 "Hg1 mi
7:00 am28 °FIce fog.1 mph93%30.33 "Hg1 mi
6:30 am27 °FIce fog.2 mph100%30.33 "Hg1 mi
6:00 am27 °FIce fog.2 mph100%30.33 "Hg1 mi
5:30 am28 °FIce fog.2 mph93%30.33 "Hg1 mi
5:00 am28 °FIce fog.3 mph93%30.33 "Hg1 mi
4:30 am28 °FIce fog.3 mph93%30.33 "Hg3 mi
4:00 am27 °FLow clouds.3 mph100%30.33 "Hg4 mi
3:30 am25 °FLow clouds.3 mph100%30.33 "Hg4 mi
3:00 am25 °FLow clouds.2 mph93%30.33 "Hg4 mi
2:30 am23 °FPassing clouds.2 mph93%30.33 "Hg4 mi
2:00 am23 °FClear.2 mph93%30.33 "Hg4 mi
1:30 am25 °FIce fog.2 mph93%30.33 "Hg3 mi
1:00 am25 °FIce fog.2 mph93%30.33 "Hg3 mi
Weather by CustomWeather, © 2016

See weather overviewHow to use our weather pages